TimeEST,TemperatureF,Dew PointF,Humidity,Sea Level PressureIn,VisibilityMPH,Wind Direction,Wind SpeedMPH,Gust SpeedMPH,PrecipitationIn,Events,Conditions,WindDirDegrees,DateUTC
12:15 AM,30.0,23.7,77,29.93,10.0,WSW,4.6,-,N/A,,Overcast,250,2013-02-13 05:15:00
12:34 AM,30.0,23.5,77,29.93,10.0,West,6.9,-,N/A,,Overcast,260,2013-02-13 05:34:00
12:55 AM,30.0,23.5,77,29.92,10.0,West,3.5,-,N/A,,Overcast,270,2013-02-13 05:55:00
1:15 AM,30.2,23.9,77,29.92,10.0,West,4.6,-,N/A,,Overcast,280,2013-02-13 06:15:00
1:35 AM,30.4,23.9,77,29.91,10.0,WSW,4.6,-,N/A,,Overcast,250,2013-02-13 06:35:00
1:55 AM,30.6,23.9,76,29.90,10.0,WSW,5.8,-,N/A,,Overcast,240,2013-02-13 06:55:00
2:14 AM,30.2,23.9,77,29.90,10.0,WSW,5.8,-,N/A,,Overcast,250,2013-02-13 07:14:00
2:35 AM,29.8,23.5,77,29.90,10.0,Calm,Calm,-,N/A,,Scattered Clouds,0,2013-02-13 07:35:00
2:55 AM,28.4,23.4,81,29.89,10.0,Calm,Calm,-,N/A,,Clear,0,2013-02-13 07:55:00
3:15 AM,26.2,22.8,87,29.88,7.0,Calm,Calm,-,N/A,,Clear,0,2013-02-13 08:15:00
3:35 AM,24.4,22.3,91,29.88,7.0,South,3.5,-,N/A,,Clear,170,2013-02-13 08:35:00
3:54 AM,24.6,22.6,92,29.87,7.0,South,3.5,-,N/A,,Clear,180,2013-02-13 08:54:00
4:15 AM,24.4,22.1,91,29.86,7.0,Calm,Calm,-,N/A,,Clear,0,2013-02-13 09:15:00
4:35 AM,24.6,22.1,90,29.86,7.0,Calm,Calm,-,N/A,,Clear,0,2013-02-13 09:35:00
4:55 AM,24.4,22.1,91,29.86,5.0,Calm,Calm,-,N/A,,Clear,0,2013-02-13 09:55:00
5:15 AM,23.9,22.1,93,29.85,5.0,South,3.5,-,N/A,,Clear,170,2013-02-13 10:15:00
5:34 AM,23.9,21.9,92,29.85,5.0,South,4.6,-,N/A,,Scattered Clouds,170,2013-02-13 10:34:00
5:55 AM,24.3,22.1,91,29.84,7.0,South,3.5,-,N/A,,Mostly Cloudy,180,2013-02-13 10:55:00
6:15 AM,23.9,21.7,91,29.83,5.0,South,3.5,-,N/A,,Mostly Cloudy,190,2013-02-13 11:15:00
6:34 AM,23.5,21.6,92,29.83,5.0,Calm,Calm,-,N/A,,Scattered Clouds,0,2013-02-13 11:34:00
6:55 AM,23.0,21.0,92,29.82,5.0,Calm,Calm,-,N/A,,Clear,0,2013-02-13 11:55:00
7:15 AM,22.6,20.8,93,29.81,5.0,Calm,Calm,-,N/A,,Clear,0,2013-02-13 12:15:00
7:35 AM,22.6,21.0,93,29.81,5.0,Calm,Calm,-,N/A,,Clear,0,2013-02-13 12:35:00
7:54 AM,22.6,20.8,93,29.80,4.0,Calm,Calm,-,N/A,,Clear,0,2013-02-13 12:54:00
8:15 AM,23.0,21.0,92,29.80,5.0,South,3.5,-,N/A,,Clear,170,2013-02-13 13:15:00
8:35 AM,23.7,21.2,90,29.80,5.0,South,5.8,-,N/A,,Clear,170,2013-02-13 13:35:00
8:54 AM,24.6,21.6,88,29.80,5.0,South,6.9,-,N/A,,Clear,170,2013-02-13 13:54:00
9:15 AM,25.5,21.9,86,29.80,7.0,South,6.9,-,N/A,,Clear,170,2013-02-13 14:15:00
9:34 AM,26.4,22.1,84,29.79,7.0,South,6.9,-,N/A,,Clear,180,2013-02-13 14:34:00
9:55 AM,27.9,22.8,81,29.79,7.0,South,8.1,-,N/A,,Clear,180,2013-02-13 14:55:00
10:14 AM,29.3,23.0,77,29.79,7.0,South,5.8,-,N/A,,Clear,170,2013-02-13 15:14:00
10:35 AM,30.9,23.7,75,29.79,7.0,South,6.9,-,N/A,,Clear,170,2013-02-13 15:35:00
10:55 AM,32.0,24.3,73,29.79,7.0,South,5.8,-,N/A,,Clear,180,2013-02-13 15:55:00
11:15 AM,33.1,24.4,71,29.79,10.0,South,4.6,-,N/A,,Clear,180,2013-02-13 16:15:00
11:35 AM,34.0,25.0,70,29.79,10.0,South,5.8,-,N/A,,Clear,190,2013-02-13 16:35:00
11:54 AM,35.2,25.7,68,29.79,10.0,South,8.1,-,N/A,,Clear,190,2013-02-13 16:54:00
12:15 PM,36.0,25.7,66,29.78,10.0,South,6.9,-,N/A,,Clear,190,2013-02-13 17:15:00
12:35 PM,36.7,26.2,66,29.77,10.0,South,5.8,-,N/A,,Clear,170,2013-02-13 17:35:00
12:55 PM,37.4,27.1,66,29.76,10.0,SSW,4.6,-,N/A,,Clear,210,2013-02-13 17:55:00
1:15 PM,37.9,27.1,65,29.75,10.0,SSW,9.2,-,N/A,,Clear,200,2013-02-13 18:15:00
1:35 PM,38.5,27.3,64,29.74,7.0,SW,6.9,-,N/A,,Clear,220,2013-02-13 18:35:00
1:55 PM,38.8,27.5,64,29.73,10.0,SSW,5.8,-,N/A,,Clear,210,2013-02-13 18:55:00
2:14 PM,39.6,28.0,63,29.72,10.0,West,6.9,-,N/A,,Clear,260,2013-02-13 19:14:00
2:34 PM,39.6,28.4,64,29.72,10.0,West,8.1,-,N/A,,Clear,260,2013-02-13 19:34:00
2:55 PM,39.2,28.8,66,29.72,7.0,West,6.9,-,N/A,,Clear,270,2013-02-13 19:55:00
3:15 PM,39.6,29.3,67,29.71,10.0,West,6.9,-,N/A,,Clear,270,2013-02-13 20:15:00
3:35 PM,39.6,28.9,66,29.72,10.0,SW,5.8,-,N/A,,Clear,230,2013-02-13 20:35:00
3:54 PM,39.6,28.6,65,29.72,10.0,WSW,4.6,-,N/A,,Clear,250,2013-02-13 20:54:00
4:14 PM,40.1,28.9,64,29.72,10.0,WSW,6.9,-,N/A,,Clear,250,2013-02-13 21:14:00
4:55 PM,38.7,28.6,67,29.72,10.0,SW,3.5,-,N/A,,Scattered Clouds,230,2013-02-13 21:55:00
5:15 PM,38.7,28.8,68,29.72,10.0,SW,4.6,-,N/A,,Clear,230,2013-02-13 22:15:00
5:35 PM,39.0,28.4,66,29.72,10.0,WSW,4.6,-,N/A,,Scattered Clouds,240,2013-02-13 22:35:00
5:54 PM,38.7,28.4,67,29.72,10.0,SW,3.5,-,N/A,,Clear,230,2013-02-13 22:54:00
6:15 PM,38.3,28.4,68,29.72,10.0,SW,3.5,-,N/A,,Clear,230,2013-02-13 23:15:00
6:35 PM,37.6,28.4,69,29.73,10.0,SW,3.5,-,N/A,,Clear,220,2013-02-13 23:35:00
6:55 PM,37.4,28.4,70,29.73,10.0,Calm,Calm,-,N/A,,Clear,0,2013-02-13 23:55:00
7:14 PM,36.9,28.4,71,29.73,10.0,Calm,Calm,-,N/A,,Clear,0,2013-02-14 00:14:00
7:35 PM,32.2,27.5,83,29.73,10.0,Calm,Calm,-,N/A,,Clear,0,2013-02-14 00:35:00
7:55 PM,32.4,28.0,84,29.74,10.0,Calm,Calm,-,N/A,,Clear,0,2013-02-14 00:55:00
8:15 PM,31.1,27.5,87,29.74,7.0,Calm,Calm,-,N/A,,Clear,0,2013-02-14 01:15:00
8:35 PM,30.9,27.0,85,29.74,10.0,Calm,Calm,-,N/A,,Clear,0,2013-02-14 01:35:00
8:54 PM,31.1,27.7,87,29.74,10.0,Calm,Calm,-,N/A,,Clear,0,2013-02-14 01:54:00
9:15 PM,33.8,30.2,87,29.74,7.0,Calm,Calm,-,N/A,,Clear,0,2013-02-14 02:15:00
9:34 PM,33.3,29.7,87,29.74,7.0,Calm,Calm,-,N/A,,Clear,0,2013-02-14 02:34:00
9:55 PM,30.7,28.2,90,29.74,7.0,Calm,Calm,-,N/A,,Clear,0,2013-02-14 02:55:00
10:15 PM,29.1,27.3,93,29.74,5.0,Calm,Calm,-,N/A,,Clear,0,2013-02-14 03:15:00
10:35 PM,28.2,26.8,94,29.74,4.0,Calm,Calm,-,N/A,,Clear,0,2013-02-14 03:35:00
10:55 PM,27.7,26.4,95,29.74,3.0,Calm,Calm,-,N/A,,Clear,0,2013-02-14 03:55:00
11:14 PM,28.6,27.5,96,29.74,4.0,South,3.5,-,N/A,,Clear,180,2013-02-14 04:14:00
11:35 PM,27.7,26.6,96,29.74,3.0,Calm,Calm,-,N/A,,Clear,0,2013-02-14 04:35:00
11:55 PM,27.9,26.6,95,29.74,3.0,Calm,Calm,-,N/A,,Clear,0,2013-02-14 04:55:00